Weather History for KSAC - January, 2013

Change the Weather History Date:

Wednesday, January 9, 2013

  Actual Average Record
Temperature  
Mean Temperature 44 °F -  
Max Temperature 52 °F 53 °F 69 °F (1953)
Min Temperature 35 °F 38 °F 28 °F (1977)
Degree Days  
Heating Degree Days 21    
Cooling Degree Days 0    
Moisture  
Dew Point 39 °F    
Average Humidity 79    
Maximum Humidity 92    
Minimum Humidity 65    
Precipitation  
Precipitation T in 0.12 in 2.22 in (1995)
Month to date precipitation 0.78 1.03  
Year to date precipitation 0.78 1.03  
Since 1 July precipitation 12.07 7.65  
Sea Level Pressure  
Sea Level Pressure 30.05 in    
Wind  
Wind Speed 3 mph (SSW)    
Max Wind Speed 13 mph    
Max Gust Speed 16 mph    
Visibility 5 miles    
Events Rain    
T = Trace of Precipitation, MM = Missing Value Source: NWS Daily Summary

Daily Weather History Graph

Daily Weather History Graph

Search for Another Location

Airport or City:

Trip Planner

Search our weather history database for the weather conditions in past years. The results will help you decide how hot, cold, wet, or windy it might be!

Date:

Astronomy

Jan. 09, 2013 Rise Set
Actual Time 7:23 AM PST 5:03 PM PST
Civil Twilight 6:54 AM PST 5:32 PM PST
Nautical Twilight 6:21 AM PST 6:05 PM PST
Astronomical Twilight 5:49 AM PST 6:37 PM PST
Moon 5:08 AM PST (1/9) 3:10 PM PST (1/9)
Length of Visible Light 10h 38m
Length of Day
9h 39m
Waning Crescent, 6% of the Moon is Illuminated
Jan 9
Waning Crescent
Jan 11
New
Jan 18
First Quarter
Jan 26
Full
Feb 3
Last Quarter

Hourly Weather History & Observations

Time (PST) Temp. Windchill Dew Point Humidity Pressure Visibility Wind Dir Wind Speed Gust Speed Precip Events Conditions
12:04 AM 41.0 °F - 37.4 °F 87% 30.18 in 5.0 mi Calm Calm - N/A   Clear
12:53 AM 42.1 °F 39.2 °F 39.0 °F 89% 30.18 in 7.0 mi East 4.6 mph - N/A   Clear
1:53 AM 43.0 °F - 39.0 °F 86% 30.17 in 10.0 mi Calm Calm - N/A   Clear
2:53 AM 39.0 °F - 37.0 °F 93% 30.16 in 8.0 mi Calm Calm - N/A   Clear
3:53 AM 39.9 °F - 37.0 °F 89% 30.15 in 7.0 mi Calm Calm - N/A   Clear
4:29 AM 37.4 °F - 35.6 °F 93% 30.14 in 1.8 mi Calm Calm - N/A   Clear
4:44 AM 39.2 °F - 35.6 °F 87% 30.14 in 2.5 mi Calm Calm - N/A   Clear
4:53 AM 37.9 °F - 36.0 °F 93% 30.13 in 1.2 mi Calm Calm - N/A   Clear
5:03 AM 37.4 °F - 37.4 °F 100% 30.13 in 3.0 mi Calm Calm - N/A   Clear
5:18 AM 37.4 °F - 35.6 °F 93% 30.11 in 1.8 mi Calm Calm - N/A   Clear
5:53 AM 37.0 °F - 35.1 °F 93% 30.12 in 5.0 mi Calm Calm - N/A   Clear
6:00 AM 37.4 °F - 35.6 °F 93% 30.12 in 0.8 mi Calm Calm - N/A   Clear
6:02 AM 37.4 °F - 35.6 °F 93% 30.12 in 5.0 mi Calm Calm - N/A   Clear
6:53 AM 37.0 °F - 35.1 °F 93% 30.12 in 5.0 mi Calm Calm - N/A   Clear
7:53 AM 35.1 °F 32.2 °F 34.0 °F 96% 30.12 in 3.0 mi WSW 3.5 mph - N/A   Clear
8:53 AM 42.1 °F - 39.0 °F 89% 30.12 in 3.0 mi Calm Calm - N/A   Clear
9:53 AM 46.0 °F 44.8 °F 42.1 °F 86% 30.10 in 6.0 mi SE 3.5 mph - N/A   Clear
10:53 AM 46.9 °F - 42.1 °F 83% 30.08 in 4.0 mi South 3.5 mph - N/A   Haze
11:53 AM 46.9 °F - 42.1 °F 83% 30.04 in 5.0 mi South 6.9 mph - N/A   Haze
12:53 PM 48.0 °F - 43.0 °F 83% 30.01 in 3.0 mi South 9.2 mph - N/A   Haze
1:34 PM 46.4 °F 42.9 °F 42.8 °F 87% 30.00 in 3.0 mi South 6.9 mph - N/A   Haze
1:53 PM 46.9 °F - 42.1 °F 83% 29.99 in 3.0 mi SE 5.8 mph - N/A   Haze
2:53 PM 48.0 °F - 43.0 °F 83% 29.98 in 3.0 mi South 4.6 mph - N/A   Haze
3:03 PM 48.2 °F - 42.8 °F 82% 29.98 in 3.0 mi SSE 9.2 mph - N/A   Haze
3:10 PM 48.2 °F - 44.6 °F 87% 29.98 in 3.0 mi SSE 9.2 mph - N/A   Scattered Clouds
3:35 PM 48.2 °F - 44.6 °F 87% 29.97 in 3.0 mi SSE 8.1 mph - N/A   Haze
3:53 PM 48.9 °F - 44.1 °F 83% 29.97 in 3.0 mi South 4.6 mph - N/A   Haze
4:09 PM 51.8 °F - 46.4 °F 82% 29.97 in 7.0 mi South 6.9 mph - N/A   Mostly Cloudy
4:26 PM 51.8 °F - 46.4 °F 82% 29.96 in 7.0 mi South 5.8 mph - N/A   Mostly Cloudy
4:53 PM 48.9 °F - 44.1 °F 83% 29.96 in 3.0 mi South 5.8 mph - N/A   Haze
5:30 PM 48.2 °F - 44.6 °F 87% 29.95 in 5.0 mi SSE 6.9 mph - N/A   Haze
5:53 PM 48.9 °F - 44.1 °F 83% 29.94 in 5.0 mi South 4.6 mph - N/A   Haze
6:19 PM 48.2 °F - 44.6 °F 87% 29.95 in 8.0 mi WSW 3.5 mph - N/A   Overcast
6:23 PM 48.2 °F - 44.6 °F 87% 29.95 in 8.0 mi West 4.6 mph - N/A   Overcast
6:38 PM 50.0 °F - 44.6 °F 82% 29.95 in 10.0 mi WSW 4.6 mph - N/A   Overcast
6:53 PM 50.0 °F - 37.0 °F 61% 29.96 in 10.0 mi West 10.4 mph - 0.00 in Rain Light Rain
7:53 PM 46.9 °F - 37.0 °F 68% 29.97 in 10.0 mi WSW 5.8 mph - 0.00 in   Overcast
8:53 PM 45.0 °F 41.8 °F 33.1 °F 63% 30.00 in 10.0 mi West 5.8 mph - N/A   Mostly Cloudy
9:53 PM 42.1 °F 37.1 °F 33.1 °F 70% 30.01 in 10.0 mi WSW 8.1 mph - N/A   Clear
10:53 PM 41.0 °F 35.2 °F 30.9 °F 67% 30.03 in 10.0 mi West 9.2 mph - N/A   Clear
11:53 PM 39.9 °F 35.8 °F 30.0 °F 68% 30.04 in 10.0 mi West 5.8 mph - N/A   Clear